Airfield :
LOGIN :

Register | Disclaimer

   EN    FR    IT 

 










Legend :    VFR   Marginal VFR   IFR   Intensive IFR   Very Intensive IFR
Visi :
Ceiling :
>= 8 km
>= 3000ft
5 to 8 km
1000 to 3000 ft
1500m to 5 km
500 to 1000 ft
800 to 1500m
200 to 500 ft
< 800m
< 200 ft
Symbols :   Thunderstorms  Fog  Heavy snow  Heavy precipitations  Wind > 20 kt
SIGMETs :     Misc.  Thunderstorms  Icing  Turbulence  Mountain Waves  Volcanic Ashes






- Airport Elevation : 65 ft
- IATA code : PMO


LICJ - Palermo Punta Raisi

CURRENT METAR :
  • 170620Z 20004KT 9999 BKN032 11/08 Q1027

EXPIRED METARs :
  • 170550Z 20005KT 9999 BKN025 11/07 Q1027
  • 170520Z 15004KT 9999 BKN030 11/07 Q1027
  • 170450Z 15004KT 9999 BKN030 11/07 Q1027
  • 170420Z 14005KT 9999 BKN030 10/07 Q1027
  • 170350Z 15004KT 9999 SCT030 11/07 Q1027

TAF TAF LICJ
Valid from the 17 at 06:00 until the 18 at 06:00 UTC


170500Z 1706/1806 19006KT 9999 SCT030
BECMG 1713/1715 34015KT



MET'MAP, your aeronautical weather chart ! - Copyright ORBIFLY December 2007 - Disclaimer

ORBIFLY MET'MAP TEAM :

Programming & Development : Alexandra Zaïnal
Concept & original design : Baudouin d'Aumeries
Assistance for programming : Marc-Olivier Méhu
Technical & hardware support : Manuel Goepfert

Contact : metmap@orbifly.com




SOURCES & CREDITS :

   NOAA